Location: Marne
(34.0056°N, 117.9064°W)
Time: 16:22:29
(UTC+00:00)

CZ-4C R/B - Pass Details

Date: 18 January 2020
Orbit: 644 x 1358 km, 63.4° (Epoch: 21 February)

Event Time Altitude Azimuth Distance (km) Brightness Sun altitude
Rises 03:29:40 0° 325° (NW) 3,997 6.1 -29.2°
Reaches altitude 10° 03:32:16 10° 323° (NW) 3,120 5.5 -29.7°
Maximum altitude 03:39:52 65° 244° (WSW) 1,408 3.3 -31.3°
Drops below altitude 10° 03:48:11 10° 164° (SSE) 3,398 5.2 -33.0°
Enters shadow 03:48:21 - 164° (SSE) 3,456 5.2 -33.0°
